CW8897 Weather Reports


time (UTC)temp
F
wind
direction
speed
knots
gust
knots
rain 1hr
in
rain 24hr
in
rain mn
in
humidity
%
barometer
mb
20260906220037 77 205 4.3 12.2 0.00 0.00 0.00 28 1027.0
20260906214536 78 0.9 4.3 0.00 0.00 0.00 30 1027.2
20260906213007 75 240 2.6 13.0 0.00 0.00 0.00 29 1027.7
20260906211536 76 226 5.2 8.7 0.00 0.00 0.00 29 1027.9
20260906210003 74 191 6.1 10.4 0.00 0.00 0.00 28 1028.3
20260906204524 74 256 5.2 8.7 0.00 0.00 0.00 30 1028.2
20260906203006 76 267 4.3 9.6 0.00 0.00 0.00 30 1028.3
20260906201538 75 146 3.5 7.0 0.00 0.00 0.00 32 1028.5
20260906200014 75 233 6.1 12.2 0.00 0.00 0.00 34 1028.8
20260906194503 74 231 7.0 12.2 0.00 0.00 0.00 34 1028.8
20260906193004 74 150 4.3 11.3 0.00 0.00 0.00 34 1028.9
20260906191507 73 115 5.2 12.2 0.00 0.00 0.00 35 1029.1
20260906190035 72 203 3.5 14.8 0.00 0.00 0.00 35 1029.3
20260906184534 72 264 6.1 13.0 0.00 0.00 0.00 35 1029.9
20260906183007 72 240 3.5 9.6 0.00 0.00 0.00 34 1029.9
20260906181534 71 209 1.7 8.7 0.00 0.00 0.00 36 1030.0
20260906180037 70 210 2.6 7.0 0.00 0.00 0.00 36 1030.3
20260906174516 70 187 3.5 7.8 0.00 0.00 0.00 36 1030.6
20260906173018 70 206 6.1 9.6 0.00 0.00 0.00 37 1030.6
20260906171503 69 202 6.1 7.8 0.00 0.00 0.00 38 1030.7
20260906170034 69 242 4.3 9.6 0.00 0.00 0.00 38 1030.9
20260906164510 68 221 2.6 7.8 0.00 0.00 0.00 39 1031.0
20260906163020 68 226 4.3 7.0 0.00 0.00 0.00 39 1030.9
20260906161525 67 289 2.6 7.8 0.00 0.00 0.00 38 1030.9
20260906160030 67 272 3.5 10.4 0.00 0.00 0.00 38 1031.0
20260906154512 66 170 1.7 4.3 0.00 0.00 0.00 47 1030.9
20260906153035 62 202 0.0 1.7 0.00 0.00 0.00 57 1030.9
20260906151503 58 198 0.0 0.0 0.00 0.00 0.00 63 1031.1
20260906150004 54 248 0.0 0.0 0.00 0.00 0.00 67 1031.1
20260906144508 51 186 0.0 0.0 0.00 0.00 0.00 74 1031.2
20260906143010 48 222 0.0 0.9 0.00 0.00 0.00 79 1031.2
20260906141516 45 82 0.0 0.9 0.00 0.00 0.00 83 1031.1
20260906140005 44 82 0.0 0.9 0.00 0.00 0.00 86 1031.3
20260906134509 41 82 0.0 0.0 0.00 0.00 0.00 90 1031.1
20260906133010 38 82 0.0 0.0 0.00 0.00 0.00 91 1031.2
20260906131514 38 82 0.0 0.0 0.00 0.00 0.00 91 1031.2
20260906130003 38 82 0.0 0.0 0.00 0.00 0.00 90 1030.9
20260906124504 38 82 0.0 0.0 0.00 0.00 0.00 91 1030.7
20260906123009 39 82 0.0 0.0 0.00 0.00 0.00 89 1030.7
20260906121511 40 82 0.0 0.0 0.00 0.00 0.00 89 1030.7
20260906120017 40 82 0.0 0.0 0.00 0.00 0.00 89 1030.8
20260906114508 40 82 0.0 0.0 0.00 0.00 0.00 89 1031.1
20260906113004 40 82 0.0 0.0 0.00 0.00 0.00 89 1031.1
20260906111508 40 82 0.0 0.0 0.00 0.00 0.00 88 1031.0
20260906110012 40 82 0.0 0.0 0.00 0.00 0.00 89 1030.9
20260906104525 39 82 0.0 0.0 0.00 0.00 0.00 89 1031.0
20260906103033 39 82 0.0 0.0 0.00 0.00 0.00 89 1030.9
20260906101507 39 82 0.0 0.0 0.00 0.00 0.00 88 1030.8
20260906100011 40 82 0.0 0.0 0.00 0.00 0.00 88 1030.8
20260906094514 40 82 0.0 0.0 0.00 0.00 0.00 88 1030.7
20260906093024 40 82 0.0 0.0 0.00 0.00 0.00 88 1030.8
20260906091528 40 82 0.0 0.0 0.00 0.00 0.00 87 1030.7
20260906090008 40 82 0.0 0.0 0.00 0.00 0.00 86 1030.6
20260906084503 41 82 0.0 0.0 0.00 0.00 0.00 86 1030.4
20260906083004 42 82 0.0 0.0 0.00 0.00 0.00 85 1030.4
20260906081503 42 82 0.0 0.0 0.00 0.00 0.00 85 1030.6
20260906080003 42 82 0.0 0.0 0.00 0.00 0.00 85 1030.7
20260906074504 42 82 0.0 0.0 0.00 0.00 0.00 85 1030.7
20260906073002 43 82 0.0 0.0 0.00 0.00 0.00 84 1030.7
20260906071503 43 82 0.0 0.0 0.00 0.00 0.00 83 1030.7
20260906070004 44 82 0.0 0.0 0.00 0.00 0.00 83 1030.7
20260906064504 44 82 0.0 0.0 0.00 0.00 0.00 82 1030.7
20260906063004 45 82 0.0 1.7 0.00 0.00 0.00 81 1030.6
20260906061504 46 82 0.0 0.0 0.00 0.00 0.00 80 1030.7
20260906060006 47 82 0.0 0.0 0.00 0.00 0.00 79 1030.7
20260906054505 48 82 0.0 0.0 0.00 0.00 0.00 77 1030.7
20260906053006 48 82 0.0 0.0 0.00 0.00 0.00 76 1030.8
20260906051507 50 82 0.0 0.0 0.00 0.00 0.00 75 1030.9
20260906050006 50 82 0.0 0.0 0.00 0.00 0.00 74 1030.9
20260906044504 50 82 0.0 0.0 0.00 0.00 0.00 73 1030.9
20260906043008 50 82 0.0 0.0 0.00 0.00 0.00 73 1031.1
20260906041508 50 82 0.0 0.0 0.00 0.00 0.00 73 1031.0
20260906040009 51 82 0.0 0.0 0.00 0.00 0.00 71 1030.8
20260906034511 52 23 0.0 1.7 0.00 0.00 0.00 69 1030.9
20260906033006 53 1 0.0 0.0 0.00 0.00 0.00 68 1031.0
20260906031505 54 26 0.0 0.0 0.00 0.00 0.00 67 1030.8
20260906030008 54 11 0.0 0.0 0.00 0.00 0.00 67 1030.8
20260906024510 55 78 0.0 0.0 0.00 0.00 0.00 65 1030.6
20260906023018 56 103 0.0 0.0 0.00 0.00 0.00 63 1030.4
20260906021514 57 103 0.0 0.0 0.00 0.00 0.00 61 1030.2
20260906020001 59 102 0.0 0.9 0.00 0.00 0.00 57 1030.1
20260906014520 64 336 0.0 1.7 0.00 0.00 0.00 50 1030.1
20260906013017 65 205 0.0 1.7 0.00 0.00 0.00 1030.1
20260906011520 66 147 0.9 4.3 0.00 0.00 0.00 44 1030.1
20260906010014 68 68 1.7 6.1 0.00 0.00 0.00 42 1030.1
20260906004518 68 135 1.7 5.2 0.00 0.00 0.00 1030.1
20260906003003 69 117 0.9 7.0 0.00 0.00 0.00 40 1030.1
20260906001503 72 107 2.6 5.2 0.00 0.00 0.00 35 1030.0
20260906000022 0 0.0 0.0 0.00 0.00 0.00 1029.9
20260905234520 0 0.0 0.0 0.00 0.00 0.00 1029.8
20260905233027 0 0.0 0.0 0.00 0.00 0.00 1029.8
20260905231520 0 0.0 0.0 0.00 0.00 0.00 1029.6
20260905230019 0 0.0 0.0 0.00 0.00 0.00 1029.7
20260905224522 0 0.0 0.0 0.00 0.00 0.00 1029.7
20260905223025 0 0.0 0.0 0.00 0.00 0.00 1029.6
20260905221532 0 0.0 0.0 0.00 0.00 0.00 1029.6